Regional Weather Roundup
Issued by NWS Upton, NY

Current Version | Previous Version | Graphics & Text | Print | Product List | Glossary Off
Versions: 1 2 3 4 5 6 7 8 9 10 11 12 13 14 15 16 17 18 19 20 21 22 23 24 25 26 27 28 29 30 31 32 33 34 35 36 37 38 39 40 41 42 43 44 45 46 47 48 49 50

000
ASUS41 KOKX 212108
RWROKX

REGIONAL WEATHER ROUNDUP
NATIONAL WEATHER SERVICE NEW YORK NY
500 PM EDT SAT OCT 21 2017

NOTE: "FAIR" INDICATES FEW OR NO CLOUDS BELOW 12,000 FEET WITH NO
SIGNIFICANT WEATHER AND/OR OBSTRUCTIONS TO VISIBILITY.

NYZ071-072-176-178-NJZ106-104-212200-
NEW YORK CITY METRO AREA

CITY           SKY/WX    TMP DP  RH WIND       PRES   REMARKS
Central Park   MOSUNNY   73  41  31 VRB3      30.33R
Bronx Bot Gard   N/A     73  45  35 SE1       30.31S
LaGuardia APRT CLOUDY    72  48  42 S14       30.30R
Kennedy INTL   CLOUDY    67  48  50 S10       30.32S
Breezy Point     N/A     64 N/A N/A S10         N/A
Newark/Liberty CLOUDY    77  34  21 SW8       30.30R
Teterboro      MOSUNNY   77  39  25 S8        30.29R
$$

NYZ177-179-078>081-212200-
LONG ISLAND NEW YORK

CITY           SKY/WX    TMP DP  RH WIND       PRES   REMARKS
Jones Beach      N/A     64 N/A N/A SW5         N/A
Matinecock PT    N/A     72 N/A N/A SW6         N/A
Farmingdale    CLOUDY    68  42  38 SW9       30.32R
MacArthur/ISP  CLOUDY    68  47  46 SW7       30.32R
Shirley        CLOUDY    68  54  60 SW6       30.32R
Mt Sinai Harb    N/A    N/A N/A N/A S10         N/A
Westhampton    CLOUDY    65  52  62 SW6       30.33R
East Hampton   FAIR      64  52  66 SW7       30.30S
Montauk          N/A     64  54  69 VRB6      30.32S
$$

NYZ052-065-067-212200-
HUDSON VALLEY

CITY           SKY/WX    TMP DP  RH WIND       PRES   REMARKS
White Plains   CLOUDY    73  42  32 CALM      30.30R
Larchmont Harb   N/A     70 N/A N/A S14         N/A
Croton On Huds   N/A     75 N/A N/A SE3         N/A
Newburgh       PTSUNNY   75  45  33 SW8       30.30S
Montgomery     CLOUDY    73  52  47 SW3       30.29R
Poughkeepsie   CLOUDY    75  39  27 CALM      30.27S
Albany         CLOUDY    70  50  49 S3        30.28S
$$

NJZ001-105-106-008-010-013-015-019>022-104-212200-
NEW JERSEY

CITY           SKY/WX    TMP DP  RH WIND       PRES   REMARKS
Newark/Liberty CLOUDY    77  34  21 SW8       30.30R
Teterboro      MOSUNNY   77  39  25 S8        30.29R
Caldwell       CLOUDY    75  43  31 CALM      30.30S
Somerville     CLOUDY    76  46  34 CALM      30.29R
Linden         FAIR      77  36  22 CALM      30.30S
Perth Amboy      N/A     70 N/A N/A E7          N/A
Sussex         CLOUDY    74  40  29 SW5       30.31R
Andover          N/A     72  42  34 CALM      30.32R
Trenton        CLOUDY    73  43  33 S5        30.31S
Millville      SUNNY     74  48  39 VRB3      30.32S
Atlantic City  SUNNY     73  43  33 S6        30.33R
Wrightstown    SUNNY     74  45  35 SW5       30.29S
Toms River       N/A     72  52  49 SE7       30.33R
Belmar         MOSUNNY   71  41  33 SE6       30.33S
$$

PAZ047>061-062-071-212200-
EASTERN PENNSYLVANIA

CITY           SKY/WX    TMP DP  RH WIND       PRES   REMARKS
Philadelphia   PTSUNNY   77  41  27 CALM      30.31S
Allentown      CLOUDY    74  51  44 W3        30.32R
Scranton       CLOUDY    73  39  29 SW3       30.32S
$$

CTZ002-004>006-009-010-012-RIZ004-006-007-MAZ004-011-015-212200-
SOUTHERN NEW ENGLAND
 IN CT

CITY           SKY/WX    TMP DP  RH WIND       PRES   REMARKS
Bradley INTL   CLOUDY    77  37  23 W6        30.27R
Hartford       PTCLDY    79  36  21 NW5       30.27R
Danbury        CLOUDY    73  46  38 CALM      30.31R
Wtrbury/Oxford CLOUDY    74  41  30 CALM      30.31S
Norwalk Harbor NOT AVBL
Bridgeport     CLOUDY    71  55  56 S10       30.29R
Meriden        CLOUDY    72  41  32 S5        30.29R
New Haven      CLOUDY    69  55  60 S5        30.30R
Chester        FAIR      68  46  45 SW7       30.30R
Groton         CLOUDY    66  52  60 SW7       30.30R
Wilimantic     PTCLDY    75  41  29 CALM      30.28R

 IN RI

CITY           SKY/WX    TMP DP  RH WIND       PRES   REMARKS
Providence     CLOUDY    69  50  50 S9        30.28R
Block Island   PTCLDY    64  53  67 SW15      30.30F
Westerly       CLEAR     67  52  58 SW9       30.30S
 IN MA

CITY           SKY/WX    TMP DP  RH WIND       PRES   REMARKS
Boston         NOT AVBL
Worcester      CLOUDY    68  39  34 SW6       30.30R
Westfield      CLOUDY    75  38  26 W3        30.27R
Provincetown   CLEAR     63  50  62 SW15      30.27S
Nantucket      CLEAR     62  53  72 SW10      30.31R
$$

ANZ330-335-338-340-345-350-353-355-212200-
COASTAL MARINE OBSERVATIONS


STATION/POSITION TIME  SKY/WX   TEMP    WIND        PRES    VSBY  WAVE
                                AIR SEA DIR/SP/G                  HT/PER
                 (UTC)          (F)     (DEG/KT/KT) (MB)    (MI)  (FT/S)
NY HARB ENTRANCE 1950            66 66  180/ 10/ 12 1025.8          1/ 8
20 S FIRE ISLAND 1950            65 66  200/  8/  8 1026.8          2/ 9
GREAT SOUTH BAY  2015            64 63  240/  6/  8   N/A
15 E BARNEGAT LI NOT AVBL
HUDSON CANYON    1950            66 67  220/  2/  4 1026.2          2/ 8
KINGS POINT      2024            70 66  210/ 10/ 12 1026.7
EXECUTION ROCKS  2030            74     180/ 10/ 14   N/A
WESTERN LI SOUND 1949            72     220/  6/  6   N/A           1
CENTRAL LI SOUND 2030            68     170/  6/  6   N/A           0
EASTERN LI SOUND NOT AVBL
ROBBINS REEF     2042            67     160/ 17/ 18 1026.7
$$


>>>>>>>>>>>>>>>>>>>>>>>>>>>> KEY <<<<<<<<<<<<<<<<<<<<<<<<<<<
>                                                          <
>     SKY/WX - Sky Condition/Present Weather               <
>     TMP    - Temperature in Fahrenheit                   <
>     DP     - Dew Point in Fahrenheit                     <
>     RH     - Relative Humidity in Percent                <
>     WIND   - Direction (from) and Speed in MPH           <
>     PRES   - Mean Sea Level Pressure (inches of Hg)      <
>     WCI    - Wind Chill Index                            <
>     VSB    - VISIBILITY IN MILES                         <
>     HX     - HEAT INDEX                                  <
>     TC     - TEMPERATURE IN CELSIUS                      <
>     VRB    - VARIABLE WIND DIRECTION                     <
>                                                          <
>>>>>>>>>>>>>>>>>>>>>>>>>>>> KEY <<<<<<<<<<<<<<<<<<<<<<<<<<<



USA.gov is the U.S. government's official web portal to all federal, state and local government web resources and services.